Вернуться в каталог

FENGYUN 1C DEB

АктивенSSO
NORAD 30567·DEBRIS·🇨🇳 China

Запущен May 10, 1999 с Taiyuan Satellite Launch Center

Loading…

Ближайшие Пролёты (ближайшие 24 часа)

TLE

СвежийSource: Space-Track

Эпоха: Sep 14, 2026, 22:13 UTC

1 30567U 99025ALH 26257.92600050  .00000256  00000-0  16268-3 0  9999
2 30567  98.7971 246.8107 0109527 129.4874 260.7954 14.09160779  6633

Отслеживайте FENGYUN 1C DEB в реальном времени с AllMySat

Download on the App Store